This is the latest recevied weather packets stored in our database for station/object N2XP-2. If no packets are shown the sender has not sent any weather packets the latest 10 day(s).
| Time | Temp. | Humidity | Pressure | Rain* | Wind** | Luminosity | Snow |
|---|---|---|---|---|---|---|---|
| 1777471399 | 15° C | 68% | 1015.6 hPa | 0 mm | 0.45 m/s, 132° | - | - |
| 1777471320 | 15° C | 68% | 1015.6 hPa | 0 mm | 0.45 m/s, 132° | - | - |
| 1777471015 | 15° C | 68% | 1015.6 hPa | 0 mm | 0.45 m/s, 158° | - | - |
| 1777470833 | 14.44° C | 68% | 1015.4 hPa | 0 mm | 0.45 m/s, 259° | - | - |
| 1777470757 | 14.44° C | 68% | 1015.4 hPa | 0 mm | 0.45 m/s, 259° | - | - |
| 1777470716 | 14.44° C | 68% | 1015.6 hPa | 0 mm | 0.89 m/s, 139° | - | - |
| 1777470660 | 14.44° C | 68% | 1015.4 hPa | 0 mm | 0 m/s | - | - |
| 1777470416 | 14.44° C | 68% | 1015.4 hPa | 0 mm | 0 m/s | - | - |
| 1777470113 | 14.44° C | 69% | 1015.3 hPa | 0 mm | 0 m/s | - | - |
| 1777469814 | 15° C | 68% | 1015.2 hPa | 0 mm | 0.89 m/s, 111° | - | - |
| 1777469515 | 14.44° C | 69% | 1015.3 hPa | 0 mm | 0 m/s | - | - |
| 1777469459 | 14.44° C | 68% | 1015.4 hPa | 0 mm | 1.34 m/s, 138° | - | - |
| 1777469211 | 14.44° C | 68% | 1015.4 hPa | 0 mm | 1.34 m/s, 138° | - | - |
| 1777469191 | 14.44° C | 68% | 1015.4 hPa | 0 mm | 0.45 m/s, 259° | - | - |
| 1777468912 | 14.44° C | 68% | 1015.4 hPa | 0 mm | 0.45 m/s, 259° | - | - |
| 1777468848 | 14.44° C | 70% | 1015.4 hPa | 0 mm | 0 m/s | - | - |
| 1777468842 | 13.89° C | 71% | 1015.5 hPa | 0 mm | 0.45 m/s, 231° | - | - |
| 1777468804 | 14.44° C | 69% | 1015.5 hPa | 0 mm | 0.89 m/s, 110° | - | - |
| 1777468614 | 14.44° C | 69% | 1015.5 hPa | 0 mm | 0.89 m/s, 110° | - | - |
| 1777468310 | 14.44° C | 69% | 1015.5 hPa | 0 mm | 0 m/s | - | - |
| 1777468048 | 14.44° C | 69% | 1015.4 hPa | 0 mm | 0.45 m/s, 113° | - | - |
| 1777468011 | 14.44° C | 69% | 1015.4 hPa | 0 mm | 0.45 m/s, 113° | - | - |
| 1777467933 | 14.44° C | 69% | 1015.5 hPa | 0 mm | 0 m/s | - | - |
| 1777467755 | 14.44° C | 69% | 1015.5 hPa | 0 mm | 0 m/s | - | - |
| 1777467713 | 14.44° C | 69% | 1015.5 hPa | 0 mm | 0 m/s | - | - |
* Rain latest hour (hover to see other rain measurements)
** Current wind speed in m/s (hover to see current wind gust speed)